Location: Jaite
(41.2884°N, 81.5737°W)
Time: 06:13:54
(UTC+00:00)

SL-16 R/B - Pass Details

Date: 15 November 2025
Orbit: 839 x 848 km, 71.0° (Epoch: 04 December)

Event Time Altitude Azimuth Distance (km) Brightness Sun altitude
Rises 09:35:26 0° 180° (S) 3,391 5.3 -29.9°
Reaches altitude 10° 09:38:00 10° 173° (S) 2,461 4.7 -29.4°
Maximum altitude 09:43:13 40° 106° (ESE) 1,237 3.4 -28.4°
Drops below altitude 10° 09:48:28 10° 38° (NE) 2,478 5.0 -27.5°
Sets 09:51:03 0° 31° (NNE) 3,418 5.7 -27.0°
